Location: Red Shale Campground
(45.5700°N, 106.1600°W)
Time: 04:47:22
(UTC-07:00)

Daily predictions for brighter satellites

Satellite Brightness Start Highest point End
(mag) Time Altitude Azimuth Time Altitude Azimuth Time Altitude Azimuth
Cosmos 2369 Rocket 4.4 02:41:22 21° NE 02:41:22 21° NE 02:43:21 10° NE
ATLAS 5 CENTAUR R/B 4.1 03:09:45 23° ENE 03:09:45 23° ENE 03:11:51 10° NE
Cosmos 1943 Rocket 3.7 03:15:06 32° ENE 03:15:06 32° ENE 03:18:47 10° NE
ADEOS II 3.5 03:23:41 10° NNE 03:28:25 33° E 03:28:37 33° E
CZ-4B R/B 4.4 03:26:14 10° NNE 03:31:30 39° E 03:32:06 38° ESE
Lacrosse 5 rocket 4.1 03:44:18 14° NE 03:44:18 14° NE 03:45:13 10° ENE
Resurs 1-4 Rocket 4.3 03:49:36 10° N 03:50:35 15° NNW 03:50:35 15° NNW
Lacrosse 5 2.5 03:55:46 52° ENE 03:55:46 52° ENE 03:59:38 10° NE
CZ-2D R/B 4.3 03:58:09 10° N 03:59:19 15° NNW 03:59:19 15° NNW
Cosmos 2056 Rocket 4.0 04:10:27 48° N 04:10:27 48° N 04:14:22 10° NNE
Cosmos 972 Rocket 4.5 04:12:43 52° NNW 04:12:43 52° NNW 04:17:17 10° NNE
Cosmos 1954 Rocket 4.0 04:10:52 37° NNW 04:13:04 80° ENE 04:18:24 10° SSE
Cosmos 1656 Rocket 4.3 04:11:37 33° SSE 04:13:53 53° ESE 04:19:24 10° NE
CZ-4C R/B 2.8 04:13:00 41° SSE 04:14:23 52° ESE 04:20:10 10° NE
PAYLOAD B 4.1 04:11:00 10° NNE 04:16:35 85° WNW 04:17:06 74° SW
IRS-1C Rocket 3.9 04:12:02 10° NNE 04:17:17 82° WNW 04:17:17 82° WNW
ADEOS Rocket 4.1 04:13:40 10° N 04:18:21 31° NW 04:18:21 31° NW
GEOS 3 Rocket 3.4 04:15:14 10° SE 04:20:20 85° SW 04:20:41 78° WNW
CZ-4B DEB 4.1 04:15:14 10° NNE 04:20:48 86° WNW 04:21:49 62° SSW
Cosmos 2219 3.5 04:15:27 10° NNW 04:21:07 66° ENE 04:26:43 10° SE
Okean O Rocket 3.0 04:17:04 10° N 04:19:19 29° N 04:19:19 29° N
Meteor 1-26 Rocket 4.4 04:18:36 25° S 04:21:59 70° E 04:27:33 10° NNE
Cosmos 2369 Rocket 3.1 04:23:10 34° NNW 04:23:10 34° NNW 04:27:26 10° NNE
Cosmos 2227 Rocket 4.2 04:18:29 10° N 04:23:16 27° NE 04:28:00 10° ESE
Meteor 1-31 Rocket 4.1 04:20:10 10° NNE 04:23:49 38° E 04:25:38 23° SSE
USA 234 3.8 04:22:25 10° ENE 04:28:47 53° SE 04:32:32 25° SSW
Meteor 2-10 Rocket 3.3 04:35:44 36° S 04:37:50 90° W 04:42:58 10° N
Okean 1-7 3.2 04:37:17 26° S 04:39:36 68° E 04:43:51 10° NNE
ERS-2 2.8 04:35:57 10° NNE 04:38:43 47° N 04:38:43 47° N
Cosmos 1023 Rocket 4.3 04:34:51 10° NNW 04:40:07 80° WSW 04:45:23 10° SSE
Cosmos 2221 Rocket 3.6 04:39:18 32° S 04:41:23 85° E 04:45:58 10° N
IRAS Rocket 4.5 04:43:55 10° N 04:49:07 46° WNW 04:49:59 42° W
ATLAS 3B R/B 3.9 04:42:14 10° S 04:49:19 45° ESE 04:56:11 10° NE
Cosmos 1452 Rocket 3.4 04:48:20 40° SW 04:50:12 69° WNW 04:55:31 10° NNE
PSLV R/B 4.1 04:46:32 10° N 04:49:44 39° NW 04:49:44 39° NW
Thor Agena Rocket 3.4 04:46:07 10° SSE 04:51:19 88° WSW 04:56:30 10° NNW
ATLAS 5 CENTAUR R/B 2.6 04:51:18 34° NW 04:51:48 34° NW 04:56:39 10° NNE
Abrixas 3.4 04:55:34 40° NNE 04:55:34 40° NNE 04:57:58 10° ENE
Cosmos 1943 Rocket 2.7 04:56:39 35° WNW 04:57:27 37° NW 05:02:37 10° NNE
Cosmos 1741 Rocket 3.9 04:55:06 10° NNW 05:00:22 86° WSW 05:05:38 10° SSE
Cosmos 1782 Rocket 3.7 04:56:39 10° NNW 05:00:58 50° W 05:05:15 10° SSW
Feng Yun 1-1 Rocket 4.3 04:57:42 10° NNE 05:03:38 86° WNW 05:09:34 10° SSW
Meteor 1-28 Rocket 4.3 05:03:03 10° SE 05:06:37 46° ENE 05:10:14 10° N
ADEOS II 2.6 05:03:22 10° N 05:08:09 36° WNW 05:09:35 31° W
SJ-6F 4.3 05:07:15 10° NNE 05:11:27 89° W 05:15:33 10° SSW
Cosmos 1140 Rocket 3.8 05:06:47 10° NW 05:11:43 43° WSW 05:16:38 10° S
CZ-4B R/B 3.9 05:06:57 10° N 05:11:59 35° WNW 05:14:01 27° WSW
Cosmos 614 Rocket 4.0 05:08:45 10° NNW 05:13:43 53° WSW 05:18:41 10° S
Cosmos 1386 Rocket 4.4 05:10:03 10° N 05:16:09 89° E 05:22:18 10° S
Cosmos 1745 Rocket 3.9 05:10:10 10° NNW 05:16:18 71° W 05:22:22 10° S
SKYMED 2 3.5 05:12:14 10° SSE 05:16:34 88° E 05:20:57 10° NNW
Tiangong 1 1.4 05:19:40 39° SW 05:20:15 47° S 05:23:06 10° ESE
Okean-O 2.8 05:17:01 10° N 05:21:19 50° WNW 05:25:36 10° SW
Lacrosse 5 rocket 1.1 05:20:02 22° NW 05:22:17 74° NE 05:25:52 10° SE
Meteor 1-20 Rocket 4.2 05:18:30 10° NNW 05:24:06 59° W 05:29:34 10° S
Cosmos 2082 4.2 05:20:00 10° NNW 05:25:38 61° ENE 05:31:12 10° SE
CZ-4B R/B 4.2 05:22:07 10° N 05:25:56 44° WNW 05:29:55 10° SW
Cosmos 1674 Rocket 4.4 05:22:35 10° S 05:26:53 54° E 05:31:14 10° NNE
Meteor 1-27 Rocket 4.4 05:25:25 10° S 05:31:07 61° E 05:36:56 10° NNE
USA 81 4.0 05:26:06 10° S 05:31:22 75° W 05:36:40 10° N
Cosmos 1606 2.6 05:28:26 10° SSW 05:32:18 78° W 05:36:14 10° N
Okean 2 Rocket 3.7 05:28:46 10° NNW 05:32:38 31° W 05:36:31 10° SSW
Cosmos 1602 4.1 05:29:28 10° N 05:33:26 68° E 05:37:21 10° SSE
Lacrosse 5 2.9 05:34:59 18° WNW 05:37:59 32° NNW 05:42:32 10° NE
Cosmos 1782 3.0 05:38:02 10° SSW 05:41:51 46° WNW 05:45:43 10° N
Cosmos 2369 4.5 05:38:14 10° S 05:43:43 56° ESE 05:49:15 10° NNE
Okean 1 Rocket 3.5 05:41:53 10° N 05:46:17 65° E 05:50:37 10° SSE
Cosmos 2297 Rocket 2.4 05:41:37 10° NNW 05:47:18 78° ENE 05:52:57 10° SSE
Cosmos 1607 3.9 05:41:32 10° SW 05:47:39 85° NW 05:53:54 10° NE
Cosmos 2151 Rocket 4.0 05:48:22 10° NNW 05:52:36 40° W 05:56:47 10° SSW
Ariane Rocket 3.1 05:52:23 10° NNE 05:57:30 87° ESE 06:02:35 10° SSW
Meteor 1-31 Rocket 4.2 05:55:17 10° NNW 05:58:02 19° WNW 06:00:46 10° WSW
Cosmos 2278 3.9 05:54:05 10° SSW 05:59:43 78° ESE 06:05:23 10° NNE
Meteor 2-6 Rocket 4.2 05:55:26 10° SSW 06:00:41 53° WNW 06:06:02 10° N
Cosmos 1633 2.8 05:59:29 10° NNW 06:02:59 45° W 06:06:25 10° SSW
Cosmos 1346 Rocket 4.3 05:59:16 10° SSE 06:03:07 42° E 06:06:57 10° NNE
CZ-4C R/B 3.0 05:58:12 10° WSW 06:03:10 35° NW 06:08:53 10° NNE
Cosmos 2219 4.4 06:00:42 10° NW 06:04:42 20° W 06:08:40 10° SW
COSMO-SKYMED 1 3.4 06:01:01 10° SSW 06:04:49 29° W 06:08:38 10° NW
Cosmos 2227 Rocket 2.3 06:02:08 10° NNW 06:07:43 58° WSW 06:13:15 10° S
USA 234 3.5 06:05:28 10° NE 06:11:51 58° NNW 06:18:13 10° WSW
Cosmos 1656 4.1 06:11:42 10° SSW 06:17:21 70° ESE 06:23:02 10° NNE
SL-24 R/B - RUBIN 2 4.4 06:11:39 10° NW 06:17:41 58° WSW 06:22:58 10° SSE
Cosmos 1486 Rocket 4.0 06:12:58 10° NNW 06:18:15 80° WSW 06:23:27 10° SSE
IDEFIX/ARIANE 42P 2.9 06:13:31 10° NNE 06:18:46 76° ESE 06:23:58 10° S
USA 238 DEB 3.8 06:12:35 10° SW 06:19:37 87° NW 06:26:42 10° NE
USA 238 3.8 06:12:41 10° SW 06:19:42 88° NW 06:26:48 10° NE
Cosmos 1331 Rocket 4.0 06:16:55 10° SSW 06:22:03 64° WNW 06:27:17 10° NNE
